DW2057 Weather Reports


Display with metric or nautical units.
time (UTC)temp
F
wind
direction
speed
MPH
gust
MPH
rain 1hr
in
rain 24hr
in
rain mn
in
humidity
%
barometer
mb
20260509162005 38 352 2.0 3.0 0.00 0.00 0.00 62 1029.3
20260509161805 38 352 1.0 1.0 0.00 0.00 0.00 62 1022.8
20260509161301 38 352 2.0 2.0 0.00 0.00 0.00 62 1022.9
20260509160757 38 352 0.0 1.0 0.00 0.00 0.00 62 1022.9
20260509160505 38 352 1.0 3.0 0.00 0.00 0.00 61 1029.2
20260509160253 38 352 1.0 1.0 0.00 0.00 0.00 61 1023.0
20260509160005 38 352 2.0 2.0 0.00 0.00 0.00 60 1029.1
20260509155748 38 352 2.0 2.0 0.00 0.00 0.00 60 1022.8
20260509155505 38 352 2.0 3.0 0.00 0.00 0.00 60 1029.2
20260509155245 38 352 1.0 2.0 0.00 0.00 0.00 60 1023.1
20260509155004 38 352 2.0 3.0 0.00 0.00 0.00 59 1029.3
20260509154741 38 352 1.0 1.0 0.00 0.00 0.00 59 1022.7
20260509154239 38 352 1.0 2.0 0.00 0.00 0.00 59 1022.8
20260509154005 38 352 2.0 3.0 0.00 0.00 0.00 59 1029.3
20260509153736 38 352 1.0 2.0 0.00 0.00 0.00 60 1022.9
20260509153231 38 352 1.0 2.0 0.00 0.00 0.00 59 1023.0
20260509153005 38 352 2.0 3.0 0.00 0.00 0.00 59 1029.3
20260509152728 38 352 1.0 2.0 0.00 0.00 0.00 59 1022.9
20260509152509 38 353 2.0 2.0 0.00 0.00 0.00 59 1029.3
20260509152225 38 352 1.0 1.0 0.00 0.00 0.00 59 1023.0
20260509152004 38 352 2.0 2.0 0.00 0.00 0.00 59 1029.3
20260509151722 39 352 1.0 1.0 0.00 0.00 0.00 60 1023.0
20260509151505 39 352 1.0 2.0 0.00 0.00 0.00 60 1029.2
20260509151218 39 353 1.0 2.0 0.00 0.00 0.00 60 1022.8
20260509151005 39 353 2.0 3.0 0.00 0.00 0.00 60 1029.5
20260509150716 39 353 1.0 2.0 0.00 0.00 0.00 60 1022.9
20260509150505 39 353 2.0 3.0 0.00 0.00 0.00 60 1029.2
20260509150214 39 353 1.0 1.0 0.00 0.00 0.00 60 1022.9
20260509150004 39 353 1.0 2.0 0.00 0.00 0.00 60 1029.0
20260509145710 39 353 0.0 1.0 0.00 0.00 0.00 60 1022.8
20260509145504 39 353 2.0 2.0 0.00 0.00 0.00 59 1029.1
20260509145206 39 353 0.0 1.0 0.00 0.00 0.00 57 1022.7
20260509145004 39 353 1.0 2.0 0.00 0.00 0.00 57 1029.1
20260509144702 39 353 1.0 1.0 0.00 0.00 0.00 57 1022.7
20260509144505 39 353 2.0 3.0 0.00 0.00 0.00 57 1029.2
20260509144200 39 353 1.0 2.0 0.00 0.00 0.00 58 1022.8
20260509143657 39 353 1.0 1.0 0.00 0.00 0.00 59 1022.6
20260509143505 40 353 2.0 2.0 0.00 0.00 0.00 58 1029.1
20260509143154 40 353 1.0 1.0 0.00 0.00 0.00 57 1022.7
20260509143004 40 353 0.0 2.0 0.00 0.00 0.00 57 1029.1
20260509142649 40 353 1.0 1.0 0.00 0.00 0.00 56 1022.3
20260509142505 40 353 1.0 2.0 0.00 0.00 0.00 55 1028.9
20260509142146 40 353 1.0 1.0 0.00 0.00 0.00 55 1022.6
20260509142006 40 353 2.0 3.0 0.00 0.00 0.00 55 1028.9
20260509141642 40 353 2.0 2.0 0.00 0.00 0.00 55 1022.3
20260509141510 40 353 2.0 3.0 0.00 0.00 0.00 55 1029.1
20260509141138 40 353 1.0 1.0 0.00 0.00 0.00 54 1022.3
20260509141004 40 353 2.0 2.0 0.00 0.00 0.00 53 1028.9
20260509140636 40 353 1.0 2.0 0.00 0.00 0.00 53 1022.6
20260509140505 40 353 1.0 2.0 0.00 0.00 0.00 53 1028.9
20260509140134 40 353 1.0 1.0 0.00 0.00 0.00 53 1022.2
20260509140005 41 353 2.0 2.0 0.00 0.00 0.00 54 1028.9
20260509135630 41 353 0.0 1.0 0.00 0.00 0.00 52 1022.7
20260509135129 41 353 1.0 2.0 0.00 0.00 0.00 52 1022.1
20260509135005 41 353 1.0 3.0 0.00 0.00 0.00 51 1028.9
20260509134625 41 353 0.0 2.0 0.00 0.00 0.00 50 1022.0
20260509134122 41 353 0.0 2.0 0.00 0.00 0.00 49 1022.1
20260509134005 41 353 2.0 3.0 0.00 0.00 0.00 48 1028.8
20260509133620 41 353 2.0 2.0 0.00 0.00 0.00 48 1022.2
20260509133505 41 353 2.0 3.0 0.00 0.00 0.00 49 1028.6
20260509133117 41 353 1.0 2.0 0.00 0.00 0.00 52 1022.1
20260509133005 41 353 2.0 3.0 0.00 0.00 0.00 52 1028.7
20260509132615 41 353 1.0 1.0 0.00 0.00 0.00 51 1022.3
20260509132510 42 353 1.0 2.0 0.00 0.00 0.00 51 1028.7
20260509132113 42 353 1.0 1.0 0.00 0.00 0.00 49 1022.2
20260509131609 42 353 1.0 1.0 0.00 0.00 0.00 49 1022.2
20260509131106 42 353 1.0 2.0 0.00 0.00 0.00 48 1021.9
20260509130602 42 353 1.0 2.0 0.00 0.00 0.00 48 1022.0
20260509130505 42 353 2.0 3.0 0.00 0.00 0.00 48 1028.5
20260509130058 42 353 2.0 2.0 0.00 0.00 0.00 48 1022.0
20260509130006 42 353 3.0 3.0 0.00 0.00 0.00 48 1028.5
20260509125555 42 359 1.0 2.0 0.00 0.00 0.00 49 1022.0
20260509125051 42 20 2.0 2.0 0.00 0.00 0.00 51 1022.0
20260509125005 42 20 2.0 3.0 0.00 0.00 0.00 51 1028.5
20260509124548 42 23 1.0 1.0 0.00 0.00 0.00 48 1021.8
20260509124045 42 21 0.0 1.0 0.00 0.00 0.00 51 1021.9
20260509124007 42 21 1.0 2.0 0.00 0.00 0.00 51 1028.4
20260509123543 43 21 0.0 1.0 0.00 0.00 0.00 49 1021.6
20260509123039 43 21 1.0 1.0 0.00 0.00 0.00 46 1021.5
20260509123004 43 21 2.0 2.0 0.00 0.00 0.00 46 1028.3
20260509122536 43 21 0.0 1.0 0.00 0.00 0.00 48 1021.6
20260509122033 44 353 1.0 1.0 0.00 0.00 0.00 50 1021.8
20260509122010 44 353 2.0 2.0 0.00 0.00 0.00 50 1028.3
20260509121529 44 352 1.0 1.0 0.00 0.00 0.00 49 1021.6
20260509121027 44 353 1.0 2.0 0.00 0.00 0.00 47 1021.6
20260509121006 44 353 2.0 3.0 0.00 0.00 0.00 47 1028.1
20260509120525 44 353 1.0 2.0 0.00 0.00 0.00 47 1021.6
20260509120023 44 353 1.0 2.0 0.00 0.00 0.00 45 1021.8
20260509120005 44 4 2.0 3.0 0.00 0.00 0.00 45 1028.3
20260509115519 44 32 1.0 2.0 0.00 0.00 0.00 46 1021.5
20260509115506 45 33 2.0 3.0 0.00 0.00 0.00 46 1028.1
20260509115018 45 36 1.0 2.0 0.00 0.00 0.00 47 1021.7
20260509115004 45 24 2.0 3.0 0.00 0.00 0.00 46 1028.2
20260509114515 45 349 0.0 1.0 0.00 0.00 0.00 46 1021.9
20260509114505 45 349 0.0 2.0 0.00 0.00 0.00 46 1028.1
20260509114014 45 349 1.0 1.0 0.00 0.00 0.00 45 1021.5
20260509114005 45 347 2.0 3.0 0.00 0.00 0.00 44 1028.0
20260509113512 46 346 0.0 1.0 0.00 0.00 0.00 43 1021.3
20260509113010 46 345 2.0 2.0 0.00 0.00 0.00 41 1021.3
20260509112506 46 345 1.0 2.0 0.00 0.00 0.00 39 1021.2
20260509112504 46 345 2.0 3.0 0.00 0.00 0.00 39 1027.8
20260509112002 46 345 0.0 2.0 0.00 0.00 0.00 38 1021.0
20260509111505 46 345 1.0 3.0 0.00 0.00 0.00 37 1027.6
20260509111500 46 345 1.0 2.0 0.00 0.00 0.00 37 1021.0
20260509111005 46 357 2.0 3.0 0.00 0.00 0.00 36 1027.7
20260509110957 46 357 1.0 2.0 0.00 0.00 0.00 36 1021.1
20260509110453 46 27 1.0 2.0 0.00 0.00 0.00 38 1020.7
20260509110006 46 28 2.0 2.0 0.00 0.00 0.00 36 1027.3
20260509105951 46 28 1.0 1.0 0.00 0.00 0.00 36 1020.7
20260509105449 46 27 1.0 1.0 0.00 0.00 0.00 40 1020.6
20260509105005 46 26 3.0 3.0 0.00 0.00 0.00 37 1027.2
20260509104946 46 26 2.0 2.0 0.00 0.00 0.00 37 1020.6
20260509104443 46 33 1.0 1.0 0.00 0.00 0.00 36 1020.5
20260509103940 47 33 0.0 1.0 0.00 0.00 0.00 36 1020.6
20260509103438 47 47 0.0 1.0 0.00 0.00 0.00 33 1020.6
20260509103005 48 36 1.0 3.0 0.00 0.00 0.00 33 1027.1
20260509102936 48 36 0.0 2.0 0.00 0.00 0.00 33 1020.5
20260509102433 48 37 1.0 2.0 0.00 0.00 0.00 31 1019.9
20260509101928 49 326 1.0 1.0 0.00 0.00 0.00 31 1020.0
20260509101425 49 326 1.0 2.0 0.00 0.00 0.00 30 1019.9
20260509100923 50 325 0.0 0.0 0.00 0.00 0.00 26 1019.8
20260509100420 50 326 0.0 1.0 0.00 0.00 0.00 27 1019.8
20260509095916 51 326 1.0 1.0 0.00 0.00 0.00 28 1019.5
20260509095504 51 325 0.0 0.0 0.00 0.00 0.00 25 1026.2
20260509095414 51 325 0.0 0.0 0.00 0.00 0.00 25 1019.5
20260509094910 52 290 0.0 1.0 0.00 0.00 0.00 22 1019.6
20260509094505 52 290 1.0 2.0 0.00 0.00 0.00 22 1026.1
20260509094407 52 290 0.0 1.0 0.00 0.00 0.00 22 1019.1
20260509094004 53 291 2.0 2.0 0.00 0.00 0.00 23 1026.0
20260509093905 53 291 0.0 2.0 0.00 0.00 0.00 22 1018.9
20260509093505 53 324 2.0 3.0 0.00 0.00 0.00 23 1025.9
20260509093402 53 326 0.0 1.0 0.00 0.00 0.00 22 1019.4
20260509093005 53 315 1.0 3.0 0.00 0.00 0.00 20 1025.8
20260509092900 53 315 1.0 1.0 0.00 0.00 0.00 22 1019.1
20260509092504 54 314 1.0 2.0 0.00 0.00 0.00 21 1025.6
20260509092357 54 314 0.0 1.0 0.00 0.00 0.00 20 1018.9
20260509092005 55 313 0.0 2.0 0.00 0.00 0.00 19 1025.7
20260509091856 55 313 0.0 1.0 0.00 0.00 0.00 18 1018.9
20260509091504 55 300 1.0 3.0 0.00 0.00 0.00 16 1025.6
20260509091352 55 325 2.0 3.0 0.00 0.00 0.00 16 1018.7
20260509091005 55 316 1.0 2.0 0.00 0.00 0.00 16 1025.7
20260509090850 55 315 0.0 1.0 0.00 0.00 0.00 16 1018.8
20260509090347 55 338 2.0 6.0 0.00 0.00 0.00 15 1018.5
20260509090005 55 235 0.0 2.0 0.00 0.00 0.00 19 1025.2
20260509085844 55 235 0.0 1.0 0.00 0.00 0.00 19 1018.6
20260509085504 56 294 2.0 3.0 0.00 0.00 0.00 15 1025.2
20260509085341 56 279 2.0 2.0 0.00 0.00 0.00 16 1018.5
20260509085005 56 285 2.0 3.0 0.00 0.00 0.00 15 1025.3
20260509084838 56 312 1.0 2.0 0.00 0.00 0.00 15 1018.3
20260509084335 56 277 0.0 1.0 0.00 0.00 0.00 16 1018.5
20260509084005 56 289 2.0 4.0 0.00 0.00 0.00 15 1025.1
20260509083833 56 308 1.0 6.0 0.00 0.00 0.00 15 1018.7
20260509083329 56 294 1.0 3.0 0.00 0.00 0.00 16 1018.5
20260509083004 57 278 2.0 4.0 0.00 0.00 0.00 18 1025.3
20260509082826 57 297 0.0 2.0 0.00 0.00 0.00 17 1018.6
20260509082505 57 314 1.0 3.0 0.00 0.00 0.00 16 1025.4
20260509082322 57 303 1.0 2.0 0.00 0.00 0.00 18 1018.4
20260509082004 57 296 4.0 5.0 0.00 0.00 0.00 16 1025.1
20260509081820 57 289 2.0 3.0 0.00 0.00 0.00 17 1018.4
20260509081316 57 277 0.0 2.0 0.00 0.00 0.00 16 1018.4
20260509081005 57 292 2.0 3.0 0.00 0.00 0.00 17 1025.3
20260509080815 57 271 1.0 2.0 0.00 0.00 0.00 18 1018.3
20260509080312 57 275 1.0 6.0 0.00 0.00 0.00 17 1018.1
20260509080004 57 272 2.0 4.0 0.00 0.00 0.00 17 1025.0
20260509075810 57 313 1.0 2.0 0.00 0.00 0.00 16 1018.0
20260509075505 57 349 3.0 6.0 0.00 0.00 0.00 16 1024.8
20260509075307 58 268 4.0 5.0 0.00 0.00 0.00 18 1018.1
20260509075004 58 305 2.0 2.0 0.00 0.00 0.00 17 1024.9
20260509074804 58 338 2.0 3.0 0.00 0.00 0.00 17 1017.8
20260509074505 58 340 0.0 2.0 0.00 0.00 0.00 18 1025.0
20260509074302 57 286 1.0 3.0 0.00 0.00 0.00 16 1018.0
20260509074004 57 354 3.0 4.0 0.00 0.00 0.00 16 1024.8
20260509073758 58 357 1.0 6.0 0.00 0.00 0.00 16 1018.4
20260509073505 58 290 3.0 6.0 0.00 0.00 0.00 15 1025.0
20260509073254 58 291 2.0 3.0 0.00 0.00 0.00 15 1017.8
20260509073015 58 353 3.0 4.0 0.00 0.00 0.00 15 1024.9
20260509072751 58 314 2.0 3.0 0.00 0.00 0.00 17 1017.9
20260509072505 58 264 1.0 3.0 0.00 0.00 0.00 17 1024.8
20260509072248 58 310 0.0 6.0 0.00 0.00 0.00 16 1017.7
20260509072005 58 267 3.0 5.0 0.00 0.00 0.00 16 1024.8
20260509071744 58 21 3.0 5.0 0.00 0.00 0.00 15 1017.5
20260509071505 58 293 5.0 7.0 0.00 0.00 0.00 14 1024.6
20260509071242 58 263 4.0 5.0 0.00 0.00 0.00 14 1017.4
20260509071004 58 249 4.0 5.0 0.00 0.00 0.00 14 1024.5
20260509070738 58 278 3.0 5.0 0.00 0.00 0.00 14 1017.6
20260509070235 58 268 2.0 6.0 0.00 0.00 0.00 14 1017.7
20260509070005 58 323 2.0 6.0 0.00 0.00 0.00 13 1024.6
20260509065731 58 103 2.0 7.0 0.00 0.00 0.00 13 1017.6
20260509065228 58 272 4.0 6.0 0.00 0.00 0.00 13 1017.4
20260509065005 58 222 1.0 4.0 0.00 0.00 0.00 14 1024.5
20260509064724 58 322 5.0 6.0 0.00 0.00 0.00 12 1017.4
20260509064505 58 7 3.0 4.0 0.00 0.00 0.00 14 1024.3
20260509064222 58 309 2.0 6.0 0.00 0.00 0.00 14 1017.4
20260509063719 59 274 5.0 6.0 0.00 0.00 0.00 14 1017.4
20260509063504 59 278 6.0 7.0 0.00 0.00 0.00 13 1024.3
20260509063215 59 226 1.0 3.0 0.00 0.00 0.00 14 1017.5
20260509063004 59 322 2.0 5.0 0.00 0.00 0.00 13 1024.3
20260509062713 59 286 5.0 7.0 0.00 0.00 0.00 12 1017.3
20260509062505 59 310 4.0 6.0 0.00 0.00 0.00 13 1024.2
20260509062210 59 320 3.0 6.0 0.00 0.00 0.00 13 1017.4
20260509061707 59 330 2.0 3.0 0.00 0.00 0.00 13 1017.2
20260509061204 59 295 3.0 5.0 0.00 0.00 0.00 12 1017.4
20260509061004 59 311 1.0 6.0 0.00 0.00 0.00 12 1024.3
20260509060701 59 222 1.0 6.0 0.00 0.00 0.00 13 1017.5
20260509060505 59 274 2.0 4.0 0.00 0.00 0.00 12 1024.2
20260509060158 59 268 2.0 6.0 0.00 0.00 0.00 12 1017.4
20260509060005 59 276 4.0 7.0 0.00 0.00 0.00 12 1024.3
20260509055654 59 263 5.0 8.0 0.00 0.00 0.00 12 1017.3
20260509055505 59 268 3.0 5.0 0.00 0.00 0.00 13 1024.1
20260509055149 59 341 0.0 5.0 0.00 0.00 0.00 13 1017.4
20260509055004 59 246 5.0 11.0 0.00 0.00 0.00 12 1024.5
20260509054646 60 291 1.0 3.0 0.00 0.00 0.00 14 1017.4
20260509054505 60 234 2.0 3.0 0.00 0.00 0.00 14 1024.1
20260509054144 59 293 2.0 7.0 0.00 0.00 0.00 15 1017.4
20260509053642 59 226 2.0 6.0 0.00 0.00 0.00 13 1017.4
20260509053138 59 323 1.0 3.0 0.00 0.00 0.00 13 1017.4
20260509053005 59 250 1.0 6.0 0.00 0.00 0.00 16 1024.1
20260509052636 59 7 4.0 8.0 0.00 0.00 0.00 14 1017.5
20260509052504 59 319 4.0 6.0 0.00 0.00 0.00 14 1024.4
20260509052134 59 257 4.0 5.0 0.00 0.00 0.00 14 1017.3
20260509052005 59 345 2.0 5.0 0.00 0.00 0.00 15 1024.4
20260509051631 60 278 3.0 6.0 0.00 0.00 0.00 16 1017.5
20260509051128 60 342 3.0 5.0 0.00 0.00 0.00 15 1017.4
20260509050626 59 316 4.0 6.0 0.00 0.00 0.00 14 1017.4
20260509050505 60 284 4.0 7.0 0.00 0.00 0.00 13 1024.4
20260509050122 59 330 1.0 5.0 0.00 0.00 0.00 13 1017.3
20260509050005 59 286 3.0 7.0 0.00 0.00 0.00 14 1024.3
20260509045620 59 278 2.0 3.0 0.00 0.00 0.00 16 1017.2
20260509045505 59 2 1.0 4.0 0.00 0.00 0.00 17 1024.4
20260509045116 58 26 3.0 3.0 0.00 0.00 0.00 15 1017.2
20260509044613 59 337 1.0 6.0 0.00 0.00 0.00 15 1017.5
20260509044111 60 271 1.0 3.0 0.00 0.00 0.00 17 1017.4
20260509044005 60 274 2.0 4.0 0.00 0.00 0.00 17 1024.3
20260509043607 60 13 1.0 3.0 0.00 0.00 0.00 16 1017.3
20260509043103 60 308 1.0 6.0 0.00 0.00 0.00 16 1017.2
20260509043005 60 267 3.0 6.0 0.00 0.00 0.00 16 1024.0
20260509042559 62 299 3.0 6.0 0.00 0.00 0.00 15 1017.4
20260509042504 62 315 4.0 6.0 0.00 0.00 0.00 15 1024.4
20260509042055 61 90 1.0 3.0 0.00 0.00 0.00 16 1017.3
20260509042004 61 283 1.0 4.0 0.00 0.00 0.00 17 1024.4
20260509041552 61 237 4.0 8.0 0.00 0.00 0.00 19 1017.0
20260509041505 61 13 3.0 6.0 0.00 0.00 0.00 17 1024.4
20260509041050 60 285 5.0 7.0 0.00 0.00 0.00 17 1017.6
20260509040548 61 315 4.0 7.0 0.00 0.00 0.00 16 1017.4
20260509040505 61 311 4.0 6.0 0.00 0.00 0.00 14 1024.3
20260509040044 60 284 2.0 7.0 0.00 0.00 0.00 16 1017.6
20260509040005 60 284 3.0 7.0 0.00 0.00 0.00 16 1024.5
20260509035541 61 221 4.0 11.0 0.00 0.00 0.00 18 1017.7
20260509035038 61 268 2.0 9.0 0.00 0.00 0.00 18 1017.3
20260509034536 61 283 2.0 6.0 0.00 0.00 0.00 17 1017.0
20260509034033 62 223 3.0 7.0 0.00 0.00 0.00 18 1017.2
20260509034004 61 212 4.0 5.0 0.00 0.00 0.00 18 1024.1
20260509033530 61 305 3.0 6.0 0.00 0.00 0.00 20 1017.4
20260509033027 61 274 2.0 7.0 0.00 0.00 0.00 20 1017.3
20260509033005 62 313 3.0 9.0 0.00 0.00 0.00 19 1024.2
20260509032524 61 328 4.0 9.0 0.00 0.00 0.00 22 1017.3
20260509032504 61 328 4.0 10.0 0.00 0.00 0.00 22 1024.2
20260509032021 61 225 3.0 6.0 0.00 0.00 0.00 21 1017.3
20260509031519 61 225 6.0 7.0 0.00 0.00 0.00 22 1017.2
20260509031016 61 283 3.0 6.0 0.00 0.00 0.00 22 1017.4
20260509030514 59 285 4.0 6.0 0.00 0.00 0.00 23 1017.5
20260509030010 60 249 2.0 7.0 0.00 0.00 0.00 21 1017.5
20260509030005 60 249 2.0 7.0 0.00 0.00 0.00 21 1024.4
20260509025506 59 288 4.0 8.0 0.00 0.00 0.00 23 1017.5
20260509025002 59 345 7.0 8.0 0.00 0.00 0.00 24 1017.6
20260509024458 59 311 2.0 5.0 0.00 0.00 0.00 25 1017.3
20260509023955 61 130 1.0 2.0 0.00 0.00 0.00 22 1017.5
20260509023505 61 309 1.0 5.0 0.00 0.00 0.00 23 1024.4
20260509023452 61 309 1.0 5.0 0.00 0.00 0.00 23 1017.5
20260509023005 58 286 3.0 6.0 0.00 0.00 0.00 26 1024.4
20260509022949 58 286 2.0 6.0 0.00 0.00 0.00 26 1017.5
20260509022504 60 237 2.0 4.0 0.00 0.00 0.00 25 1024.3
20260509022446 60 237 2.0 3.0 0.00 0.00 0.00 25 1017.4
20260509022005 60 298 5.0 5.0 0.00 0.00 0.00 22 1024.4
20260509021943 60 298 5.0 5.0 0.00 0.00 0.00 22 1017.5
20260509021504 60 273 3.0 7.0 0.00 0.00 0.00 25 1024.6
20260509021440 60 273 3.0 7.0 0.00 0.00 0.00 25 1017.7
20260509021005 60 252 5.0 9.0 0.00 0.00 0.00 27 1024.4
20260509020937 60 252 5.0 8.0 0.00 0.00 0.00 27 1017.5
20260509020436 60 290 4.0 5.0 0.00 0.00 0.00 26 1017.3
20260509020004 59 288 2.0 11.0 0.00 0.00 0.00 26 1024.4
20260509015932 59 288 2.0 10.0 0.00 0.00 0.00 26 1017.5
20260509015431 57 186 3.0 5.0 0.00 0.00 0.00 31 1017.7
20260509015005 58 249 5.0 12.0 0.00 0.00 0.00 28 1024.6
20260509014927 58 198 2.0 7.0 0.00 0.00 0.00 28 1017.8
20260509014424 59 281 5.0 7.0 0.00 0.00 0.00 28 1017.7
20260509013920 59 358 3.0 5.0 0.00 0.00 0.00 30 1017.3
20260509013417 58 296 3.0 8.0 0.00 0.00 0.00 30 1017.6
20260509013005 57 258 1.0 9.0 0.00 0.00 0.00 30 1024.4
20260509012913 59 249 2.0 8.0 0.00 0.00 0.00 29 1017.6
20260509012504 59 288 1.0 3.0 0.00 0.00 0.00 28 1024.3
20260509012410 59 293 2.0 2.0 0.00 0.00 0.00 29 1017.5
20260509011907 57 334 1.0 6.0 0.00 0.00 0.00 31 1017.6
20260509011505 57 264 3.0 5.0 0.00 0.00 0.00 31 1024.5
20260509011404 57 253 2.0 5.0 0.00 0.00 0.00 32 1017.5
20260509011004 56 273 1.0 3.0 0.00 0.00 0.00 35 1024.4
20260509010902 55 276 1.0 3.0 0.00 0.00 0.00 37 1017.5
20260509010359 56 324 5.0 6.0 0.00 0.00 0.00 34 1017.6
20260509010005 56 260 2.0 6.0 0.00 0.00 0.00 36 1024.4
20260509005856 56 303 3.0 6.0 0.00 0.00 0.00 35 1017.5
20260509005510 55 222 2.0 5.0 0.00 0.00 0.00 38 1024.4
20260509005354 55 319 1.0 5.0 0.00 0.00 0.00 36 1017.5
20260509005005 56 265 3.0 6.0 0.00 0.00 0.00 36 1024.4
20260509004849 56 279 2.0 5.0 0.00 0.00 0.00 36 1017.3
20260509004505 56 320 2.0 4.0 0.00 0.00 0.00 35 1024.2
20260509004346 56 259 3.0 3.0 0.00 0.00 0.00 34 1017.3
20260509003843 56 259 1.0 3.0 0.00 0.00 0.00 34 1017.5
20260509003505 55 353 3.0 7.0 0.00 0.00 0.00 33 1024.4
20260509003341 55 283 4.0 7.0 0.00 0.00 0.00 32 1017.3
20260509003004 57 281 3.0 6.0 0.00 0.00 0.00 31 1024.2
20260509002838 57 280 3.0 6.0 0.00 0.00 0.00 32 1017.2
20260509002335 55 272 2.0 5.0 0.00 0.00 0.00 34 1017.2
20260509002005 56 330 2.0 5.0 0.00 0.00 0.00 33 1024.0
20260509001833 56 357 1.0 5.0 0.00 0.00 0.00 34 1017.0
20260509001505 54 86 1.0 4.0 0.00 0.00 0.00 35 1023.9
20260509001329 54 252 2.0 9.0 0.00 0.00 0.00 35 1017.2
20260509001004 54 321 3.0 6.0 0.00 0.00 0.00 34 1024.0
20260509000826 53 311 1.0 7.0 0.00 0.00 0.00 36 1016.8
20260509000505 53 221 4.0 6.0 0.00 0.00 0.00 39 1024.1
20260509000325 52 271 2.0 6.0 0.00 0.00 0.00 39 1017.0
20260509000005 52 277 3.0 4.0 0.00 0.00 0.00 38 1024.2
20260508235820 52 285 1.0 8.0 0.00 0.00 0.00 38 1016.9
20260508235505 53 276 3.0 5.0 0.00 0.00 0.00 38 1024.0
20260508235317 53 213 3.0 8.0 0.00 0.00 0.00 36 1016.8
20260508235004 54 318 4.0 6.0 0.00 0.00 0.00 37 1024.0
20260508234814 55 314 6.0 8.0 0.00 0.00 0.00 35 1016.8
20260508234505 55 296 5.0 7.0 0.00 0.00 0.00 35 1023.7
20260508234310 54 337 1.0 3.0 0.00 0.00 0.00 36 1016.7
20260508233809 53 221 0.0 5.0 0.00 0.00 0.00 40 1016.3
20260508233504 53 9 2.0 6.0 0.00 0.00 0.00 39 1023.5
20260508233308 52 345 2.0 8.0 0.00 0.00 0.00 40 1016.4
20260508233005 53 324 6.0 11.0 0.00 0.00 0.00 38 1023.3
20260508232805 54 317 3.0 8.0 0.00 0.00 0.00 39 1016.2
20260508232504 55 218 3.0 5.0 0.00 0.00 0.00 40 1023.1
20260508232301 54 215 1.0 1.0 0.00 0.00 0.00 40 1015.9
20260508232005 54 263 4.0 5.0 0.00 0.00 0.00 40 1023.1
20260508231800 54 280 1.0 5.0 0.00 0.00 0.00 39 1015.9
20260508231255 53 171 3.0 8.0 0.00 0.00 0.00 39 1015.8
20260508231005 54 268 3.0 10.0 0.00 0.00 0.00 36 1022.6
20260508230752 54 273 9.0 10.0 0.00 0.00 0.00 36 1015.4
20260508230505 54 119 1.0 5.0 0.00 0.00 0.00 38 1022.3
20260508230248 54 291 1.0 7.0 0.00 0.00 0.00 40 1015.3
20260508230005 53 296 1.0 5.0 0.00 0.00 0.00 39 1022.5
20260508225746 53 281 3.0 5.0 0.00 0.00 0.00 40 1015.2
20260508225505 52 202 4.0 11.0 0.00 0.00 0.00 40 1022.4
20260508225242 53 322 5.0 8.0 0.00 0.00 0.00 38 1015.4
20260508225004 53 310 2.0 7.0 0.00 0.00 0.00 38 1022.3
20260508224741 53 309 3.0 5.0 0.00 0.00 0.00 39 1015.2
20260508224238 52 291 1.0 5.0 0.00 0.00 0.00 41 1015.2
20260508224005 52 295 2.0 4.0 0.00 0.00 0.00 40 1022.0
20260508223735 52 14 2.0 3.0 0.00 0.00 0.00 40 1014.8
20260508223505 52 256 2.0 4.0 0.00 0.00 0.00 40 1022.0
20260508223232 52 266 3.0 5.0 0.00 0.00 0.00 39 1014.6
20260508222730 52 214 3.0 5.0 0.00 0.00 0.00 39 1014.5
20260508222504 52 268 1.0 5.0 0.00 0.00 0.00 39 1021.9
20260508222227 51 220 2.0 3.0 0.00 0.00 0.00 41 1014.4
20260508222004 51 314 2.0 4.0 0.00 0.00 0.00 39 1021.8
20260508221723 51 265 4.0 5.0 0.00 0.00 0.00 39 1014.2
20260508221219 52 258 3.0 6.0 0.00 0.00 0.00 38 1014.1
20260508221004 52 215 3.0 5.0 0.00 0.00 0.00 38 1021.3
20260508220715 51 251 2.0 2.0 0.00 0.00 0.00 38 1014.0
20260508220212 51 251 2.0 3.0 0.00 0.00 0.00 37 1014.0
20260508215709 51 318 1.0 5.0 0.00 0.00 0.00 38 1013.8
20260508215505 51 237 1.0 3.0 0.00 0.00 0.00 40 1020.9
20260508215205 50 274 3.0 3.0 0.00 0.00 0.00 40 1013.4
20260508214702 50 277 3.0 5.0 0.00 0.00 0.00 41 1013.2
20260508214200 50 251 3.0 3.0 0.00 0.00 0.00 41 1013.4
20260508213656 49 246 1.0 2.0 0.00 0.00 0.00 41 1013.4
20260508213505 49 251 1.0 4.0 0.00 0.00 0.00 40 1020.5
20260508213152 49 208 1.0 3.0 0.00 0.00 0.00 41 1013.0
20260508213004 49 205 2.0 4.0 0.00 0.00 0.00 40 1020.4
20260508212649 48 213 0.0 2.0 0.00 0.00 0.00 41 1013.0
20260508212505 48 224 1.0 6.0 0.00 0.00 0.00 42 1020.2
20260508212146 48 250 2.0 3.0 0.00 0.00 0.00 41 1012.7
20260508212004 48 220 0.0 3.0 0.00 0.00 0.00 42 1020.3
20260508211641 47 264 3.0 6.0 0.00 0.00 0.00 41 1012.9
20260508211137 47 272 1.0 2.0 0.00 0.00 0.00 43 1012.5
20260508211005 46 268 2.0 3.0 0.00 0.00 0.00 44 1020.0
20260508210634 46 262 0.0 2.0 0.00 0.00 0.00 45 1012.3
20260508210132 46 265 1.0 2.0 0.00 0.00 0.00 44 1012.3
20260508210005 46 268 2.0 3.0 0.00 0.00 0.00 45 1019.7
20260508205629 45 264 0.0 1.0 0.00 0.00 0.00 45 1012.3
20260508205504 45 280 1.0 2.0 0.00 0.00 0.00 44 1019.8
20260508205125 45 279 1.0 2.0 0.00 0.00 0.00 44 1012.3
20260508205005 46 270 1.0 2.0 0.00 0.00 0.00 45 1019.7
20260508204621 46 279 0.0 1.0 0.00 0.00 0.00 43 1012.0
20260508204505 46 280 1.0 2.0 0.00 0.00 0.00 43 1019.5
20260508204118 46 269 1.0 2.0 0.00 0.00 0.00 44 1011.9
20260508203614 46 269 1.0 3.0 0.00 0.00 0.00 43 1012.0
20260508203110 45 260 3.0 3.0 0.00 0.00 0.00 43 1011.6
20260508203005 45 283 2.0 3.0 0.00 0.00 0.00 44 1019.1
20260508202606 45 281 0.0 1.0 0.00 0.00 0.00 44 1011.8
20260508202504 45 281 1.0 2.0 0.00 0.00 0.00 45 1018.9
20260508202104 45 274 1.0 1.0 0.00 0.00 0.00 45 1011.6
20260508201600 45 239 0.0 2.0 0.00 0.00 0.00 43 1011.5
20260508201505 45 271 2.0 4.0 0.00 0.00 0.00 43 1019.0
20260508201057 46 260 1.0 2.0 0.00 0.00 0.00 44 1011.5
20260508200554 45 216 1.0 3.0 0.00 0.00 0.00 42 1011.5
20260508200049 45 245 1.0 2.0 0.00 0.00 0.00 44 1011.3
20260508200005 45 270 2.0 3.0 0.00 0.00 0.00 44 1019.0
20260508195547 45 271 1.0 2.0 0.00 0.00 0.00 44 1011.3
20260508195504 45 271 2.0 3.0 0.00 0.00 0.00 43 1018.9
20260508195043 44 273 1.0 2.0 0.00 0.00 0.00 45 1011.3
20260508195005 44 273 2.0 3.0 0.00 0.00 0.00 45 1018.8
20260508194540 44 299 0.0 2.0 0.00 0.00 0.00 46 1011.0
20260508194507 44 299 1.0 3.0 0.00 0.00 0.00 46 1018.5
20260508194037 43 271 2.0 2.0 0.00 0.00 0.00 45 1011.1
20260508193533 44 265 0.0 2.0 0.00 0.00 0.00 44 1011.2
20260508193505 44 265 0.0 3.0 0.00 0.00 0.00 44 1018.7
20260508193030 44 276 1.0 2.0 0.00 0.00 0.00 44 1011.3
20260508192527 44 287 2.0 2.0 0.00 0.00 0.00 42 1011.3
20260508192504 44 287 2.0 3.0 0.00 0.00 0.00 42 1018.8
20260508192024 44 296 1.0 1.0 0.00 0.00 0.00 41 1011.3
20260508191521 45 296 1.0 2.0 0.00 0.00 0.00 40 1011.3
20260508191505 45 296 1.0 3.0 0.00 0.00 0.00 40 1018.8
20260508191017 45 281 0.0 1.0 0.00 0.00 0.00 39 1011.3
20260508190515 45 277 0.0 2.0 0.00 0.00 0.00 39 1011.3
20260508190505 45 277 1.0 3.0 0.00 0.00 0.00 39 1018.8
20260508190011 45 282 1.0 2.0 0.00 0.00 0.00 40 1011.1
20260508190006 45 282 2.0 3.0 0.00 0.00 0.00 40 1018.6
20260508185509 45 288 2.0 3.0 0.00 0.00 0.00 39 1011.0
20260508185006 45 297 1.0 1.0 0.00 0.00 0.00 38 1011.2
20260508184505 45 295 2.0 4.0 0.00 0.00 0.00 36 1018.7
20260508184000 46 280 2.0 2.0 0.00 0.00 0.00 37 1011.1
20260508183456 46 323 0.0 2.0 0.00 0.00 0.00 36 1010.8
20260508183004 46 287 1.0 3.0 0.00 0.00 0.00 35 1018.5
20260508182951 46 287 1.0 2.0 0.00 0.00 0.00 35 1011.0
20260508182505 46 281 3.0 4.0 0.00 0.00 0.00 35 1018.4
20260508182449 46 283 1.0 3.0 0.00 0.00 0.00 35 1011.1
20260508181944 45 286 2.0 5.0 0.00 0.00 0.00 34 1010.9
20260508181505 45 281 3.0 4.0 0.00 0.00 0.00 36 1018.4
20260508181441 45 295 2.0 2.0 0.00 0.00 0.00 35 1010.7
20260508180938 45 277 1.0 2.0 0.00 0.00 0.00 37 1011.0
20260508180435 45 281 1.0 2.0 0.00 0.00 0.00 36 1010.8
20260508180005 45 281 0.0 4.0 0.00 0.00 0.00 34 1018.4
20260508175931 45 281 1.0 3.0 0.00 0.00 0.00 34 1010.9
20260508175427 45 296 1.0 3.0 0.00 0.00 0.00 34 1010.9
20260508174926 45 277 2.0 2.0 0.00 0.00 0.00 34 1010.9
20260508174423 45 282 1.0 2.0 0.00 0.00 0.00 34 1010.9
20260508174005 45 267 0.0 2.0 0.00 0.00 0.00 38 1018.3
20260508173919 45 267 0.0 2.0 0.00 0.00 0.00 36 1010.5
20260508173505 45 302 0.0 3.0 0.00 0.00 0.00 33 1018.4
20260508173417 45 305 2.0 2.0 0.00 0.00 0.00 32 1011.0
20260508172912 45 296 1.0 2.0 0.00 0.00 0.00 33 1010.9
20260508172504 45 292 1.0 3.0 0.00 0.00 0.00 34 1018.5
20260508172410 45 283 1.0 2.0 0.00 0.00 0.00 34 1011.0
20260508172005 45 237 0.0 2.0 0.00 0.00 0.00 36 1018.4
20260508171906 45 236 0.0 1.0 0.00 0.00 0.00 35 1011.0
20260508171505 45 294 1.0 3.0 0.00 0.00 0.00 37 1018.2
20260508171402 45 288 0.0 1.0 0.00 0.00 0.00 36 1011.0
20260508170859 45 279 0.0 2.0 0.00 0.00 0.00 34 1011.0
20260508170505 46 295 0.0 2.0 0.00 0.00 0.00 36 1018.1
20260508170357 46 296 0.0 1.0 0.00 0.00 0.00 36 1010.9
20260508170004 46 298 1.0 2.0 0.00 0.00 0.00 34 1018.5
20260508165853 46 302 1.0 1.0 0.00 0.00 0.00 35 1010.9
20260508165351 46 299 0.0 1.0 0.00 0.00 0.00 33 1011.4
20260508165004 47 277 2.0 3.0 0.00 0.00 0.00 32 1018.5
20260508164847 47 298 3.0 3.0 0.00 0.00 0.00 32 1011.1
20260508164505 47 275 2.0 3.0 0.00 0.00 0.00 32 1018.6
20260508164344 47 286 1.0 3.0 0.00 0.00 0.00 32 1010.9
20260508164005 47 277 0.0 4.0 0.00 0.00 0.00 32 1018.4
20260508163841 47 286 1.0 2.0 0.00 0.00 0.00 32 1011.1
20260508163339 47 305 1.0 2.0 0.00 0.00 0.00 34 1011.3
20260508163004 47 288 1.0 2.0 0.00 0.00 0.00 34 1018.8
20260508162835 47 279 1.0 3.0 0.00 0.00 0.00 35 1011.3
20260508162505 47 288 1.0 3.0 0.00 0.00 0.00 36 1018.8
20260508162332 47 251 2.0 2.0 0.00 0.00 0.00 39 1011.0